Hourly Weather Cuiaba

Today, 24 September, Thursday

Time Temperature Precipitation Wind Pressure Humidity
00:00 +27°C° 0 mm 1 mps 741 mmHg 70%
01:00 +26°C° 0 mm 1 mps 741 mmHg 71%
02:00 +26°C° 0 mm 1 mps 740 mmHg 70%
03:00 +26°C° 0 mm 1 mps 740 mmHg 71%
04:00 +26°C° 0 mm 1 mps 740 mmHg 73%
05:00 +25°C° 0 mm 1 mps 741 mmHg 75%
06:00 +28°C° 0 mm 1 mps 741 mmHg 65%
07:00 +31°C° 0 mm 1 mps 742 mmHg 54%
08:00 +34°C° 0 mm 1 mps 743 mmHg 44%
09:00 +37°C° 0 mm 1 mps 743 mmHg 37%
10:00 +41°C° 0 mm 1 mps 742 mmHg 29%
11:00 +44°C° 0 mm 1 mps 742 mmHg 22%
12:00 +44°C° 0 mm 1 mps 741 mmHg 22%
13:00 +43°C° 0 mm 1 mps 740 mmHg 22%
14:00 +43°C° 0 mm 1 mps 739 mmHg 22%
15:00 +41°C° 0 mm 1 mps 739 mmHg 23%
16:00 +40°C° 0 mm 1 mps 739 mmHg 25%
17:00 +39°C° 0 mm 1 mps 738 mmHg 27%
18:00 +36°C° 0 mm 1 mps 739 mmHg 29%
19:00 +35°C° 0 mm 1 mps 739 mmHg 32%
20:00 +33°C° 0 mm 1 mps 739 mmHg 35%
21:00 +33°C° 0 mm 1 mps 739 mmHg 35%
22:00 +33°C° 0 mm 1 mps 739 mmHg 36%
23:00 +32°C° 0 mm 1 mps 740 mmHg 36%

Tomorrow, 25 September, Friday

Time Temperature Precipitation Wind Pressure Humidity
00:00 +31°C° 0 mm 1 mps 739 mmHg 38%
01:00 +31°C° 0 mm 1 mps 739 mmHg 41%
02:00 +30°C° 0 mm 1 mps 738 mmHg 43%
03:00 +29°C° 0 mm 1 mps 739 mmHg 44%
04:00 +28°C° 0 mm 1 mps 739 mmHg 46%
05:00 +28°C° 0 mm 1 mps 739 mmHg 48%
06:00 +31°C° 0 mm 1 mps 740 mmHg 42%
07:00 +34°C° 0 mm 1 mps 740 mmHg 35%
08:00 +37°C° 0 mm 2 mps 741 mmHg 29%
09:00 +40°C° 0 mm 2 mps 741 mmHg 24%
10:00 +42°C° 0 mm 2 mps 740 mmHg 20%
11:00 +45°C° 0 mm 3 mps 740 mmHg 15%
12:00 +46°C° 0 mm 3 mps 739 mmHg 14%
13:00 +46°C° 0 mm 3 mps 738 mmHg 13%
14:00 +46°C° 0 mm 3 mps 737 mmHg 12%
15:00 +45°C° 0 mm 3 mps 737 mmHg 14%
16:00 +44°C° 0 mm 3 mps 737 mmHg 15%
17:00 +43°C° 0 mm 3 mps 736 mmHg 17%
18:00 +40°C° 0 mm 3 mps 737 mmHg 20%
19:00 +37°C° 0 mm 3 mps 737 mmHg 23%
20:00 +35°C° 0 mm 3 mps 737 mmHg 27%
21:00 +34°C° 0 mm 3 mps 738 mmHg 29%
22:00 +34°C° 0 mm 2 mps 738 mmHg 31%
23:00 +32°C° 0 mm 2 mps 738 mmHg 32%

Day after tomorrow, 26 September, Saturday

Time Temperature Precipitation Wind Pressure Humidity
00:00 +31°C° 0 mm 2 mps 738 mmHg 34%
01:00 +31°C° 0 mm 2 mps 737 mmHg 36%
02:00 +30°C° 0 mm 2 mps 737 mmHg 38%
03:00 +30°C° 0 mm 2 mps 737 mmHg 40%
04:00 +29°C° 0 mm 2 mps 737 mmHg 42%
05:00 +29°C° 0 mm 2 mps 737 mmHg 44%
06:00 +31°C° 0 mm 3 mps 738 mmHg 39%
07:00 +35°C° 0 mm 4 mps 738 mmHg 35%
08:00 +37°C° 0 mm 5 mps 739 mmHg 30%
09:00 +40°C° 0 mm 5 mps 739 mmHg 26%
10:00 +42°C° 0 mm 5 mps 738 mmHg 22%
11:00 +44°C° 0 mm 4 mps 738 mmHg 18%
12:00 +45°C° 0 mm 4 mps 737 mmHg 17%
13:00 +45°C° 0 mm 4 mps 736 mmHg 16%
14:00 +45°C° 0 mm 3 mps 735 mmHg 15%
15:00 +44°C° 0 mm 3 mps 735 mmHg 16%
16:00 +43°C° 0 mm 3 mps 735 mmHg 18%
17:00 +42°C° 0 mm 3 mps 734 mmHg 19%
18:00 +39°C° 0 mm 3 mps 735 mmHg 22%
19:00 +37°C° 0 mm 2 mps 735 mmHg 26%
20:00 +34°C° 0 mm 2 mps 735 mmHg 30%
21:00 +32°C° 0 mm 2 mps 735 mmHg 31%
22:00 +32°C° 0 mm 2 mps 736 mmHg 32%
23:00 +31°C° 0 mm 2 mps 736 mmHg 33%

27 September, Sunday

Time Temperature Precipitation Wind Pressure Humidity
00:00 +31°C° 0 mm 2 mps 736 mmHg 34%
01:00 +30°C° 0 mm 2 mps 736 mmHg 35%
02:00 +30°C° 0 mm 2 mps 735 mmHg 36%
03:00 +30°C° 0 mm 3 mps 736 mmHg 36%
04:00 +30°C° 0 mm 3 mps 736 mmHg 37%
05:00 +30°C° 0 mm 3 mps 736 mmHg 37%
06:00 +33°C° 0 mm 4 mps 737 mmHg 35%
07:00 +35°C° 0 mm 4 mps 738 mmHg 33%
08:00 +37°C° 0 mm 5 mps 738 mmHg 30%
09:00 +40°C° 0 mm 5 mps 738 mmHg 27%
10:00 +42°C° 0 mm 4 mps 738 mmHg 24%
11:00 +44°C° 0 mm 4 mps 738 mmHg 20%
12:00 +44°C° 0 mm 4 mps 737 mmHg 19%
13:00 +44°C° 0 mm 3 mps 736 mmHg 19%
14:00 +43°C° 0 mm 3 mps 735 mmHg 18%
15:00 +42°C° 0 mm 2 mps 735 mmHg 19%
16:00 +41°C° 0 mm 1 mps 735 mmHg 20%
17:00 +40°C° 0 mm 1 mps 734 mmHg 21%
18:00 +37°C° 0 mm 1 mps 735 mmHg 23%
19:00 +35°C° 0 mm 1 mps 735 mmHg 26%
20:00 +31°C° 0 mm 0 mps 735 mmHg 28%
21:00 +32°C° 0 mm 1 mps 736 mmHg 31%
22:00 +32°C° 0 mm 1 mps 736 mmHg 33%
23:00 +31°C° 0 mm 1 mps 737 mmHg 36%

28 September, Monday

Time Temperature Precipitation Wind Pressure Humidity
00:00 +31°C° 0 mm 1 mps 737 mmHg 36%
01:00 +31°C° 0 mm 1 mps 737 mmHg 37%
02:00 +31°C° 0 mm 2 mps 737 mmHg 38%
03:00 +30°C° 0 mm 2 mps 737 mmHg 44%
04:00 +29°C° 0 mm 2 mps 737 mmHg 49%
05:00 +28°C° 0 mm 2 mps 738 mmHg 55%
06:00 +30°C° 0 mm 2 mps 738 mmHg 53%
07:00 +31°C° 0 mm 2 mps 739 mmHg 51%
08:00 +34°C° 0 mm 2 mps 740 mmHg 48%
09:00 +36°C° 0 mm 2 mps 739 mmHg 41%
10:00 +39°C° 0 mm 2 mps 739 mmHg 34%
11:00 +42°C° 0 mm 2 mps 739 mmHg 28%
12:00 +41°C° 0 mm 2 mps 738 mmHg 27%
13:00 +40°C° 0 mm 3 mps 737 mmHg 26%
14:00 +40°C° 0 mm 3 mps 736 mmHg 26%
15:00 +40°C° 0 mm 2 mps 735 mmHg 26%
16:00 +39°C° 0 mm 2 mps 735 mmHg 26%
17:00 +39°C° 0 mm 1 mps 735 mmHg 26%
18:00 +36°C° 0 mm 1 mps 735 mmHg 31%
19:00 +34°C° 0 mm 1 mps 736 mmHg 36%
20:00 +31°C° 0 mm 1 mps 736 mmHg 41%
21:00 +31°C° 0 mm 1 mps 736 mmHg 43%
22:00 +30°C° 0 mm 1 mps 736 mmHg 45%
23:00 +27°C° 0 mm 0 mps 736 mmHg 47%

29 September, Tuesday

Time Temperature Precipitation Wind Pressure Humidity
00:00 +27°C° 0 mm 0 mps 736 mmHg 48%
01:00 +27°C° 0 mm 0 mps 736 mmHg 48%
02:00 +27°C° 0 mm 0 mps 736 mmHg 49%
03:00 +28°C° 0 mm 1 mps 736 mmHg 51%
04:00 +28°C° 0 mm 1 mps 736 mmHg 53%
05:00 +27°C° 0 mm 1 mps 736 mmHg 55%
06:00 +30°C° 0 mm 1 mps 737 mmHg 48%
07:00 +33°C° 0 mm 1 mps 738 mmHg 41%
08:00 +35°C° 0 mm 1 mps 738 mmHg 34%
09:00 +40°C° 0 mm 1 mps 738 mmHg 28%
10:00 +44°C° 0 mm 1 mps 738 mmHg 22%
11:00 +45°C° 0 mm 0 mps 738 mmHg 16%
12:00 +47°C° 0 mm 1 mps 737 mmHg 15%
13:00 +47°C° 0 mm 2 mps 735 mmHg 15%
14:00 +47°C° 0 mm 2 mps 734 mmHg 14%
15:00 +46°C° 0 mm 2 mps 734 mmHg 14%
16:00 +45°C° 0 mm 2 mps 734 mmHg 14%
17:00 +43°C° 0 mm 2 mps 734 mmHg 14%
18:00 +41°C° 0 mm 1 mps 734 mmHg 18%
19:00 +37°C° 0 mm 1 mps 734 mmHg 21%
20:00 +34°C° 0 mm 1 mps 735 mmHg 25%
21:00 +34°C° 0 mm 1 mps 735 mmHg 25%
22:00 +33°C° 0 mm 1 mps 735 mmHg 25%
23:00 +33°C° 0 mm 1 mps 735 mmHg 26%
Show more